Tracking 23885 objects as of 28-Nov-2021
HD Live streaming from Space Station
objects crossing your sky now

SPACEBEE-111

Track SPACEBEE-111 now!
10-day predictions


NORAD ID: 48904
Int'l Code: 2021-059AB
Perigee: 525.1 km
Apogee: 542.1 km
Inclination: 97.5 °
Period: 95.2 minutes
Semi major axis: 6904 km
RCS: Unknown
Launch date: June 30, 2021
Source: United States (US)
Launch site: AIR FORCE EASTERN TEST RANGE (AFETR)
aabbcc
Your satellite tracking list
Your tracking list is empty




NASA's NSSDC Master Catalog

Two Line Element Set (TLE):
1 48904U 21059AB  21331.81556558  .00003316  00000-0  19022-3 0  9995
2 48904  97.5347  98.5406 0012331  80.8008 279.4617 15.13197186 23438
Source of the keplerian elements: AFSPC